Location: Bierbach
(49.2638°N, 7.2851°E)
Time: 15:09:08
(UTC+00:00)

Daily predictions for brighter satellites

Satellite Brightness Start Highest point End
(mag) Time Altitude Azimuth Time Altitude Azimuth Time Altitude Azimuth
Cosmos 1703 3.6 20:17:27 10° SSE 20:21:10 47° E 20:24:55 10° NNE
Cosmos 1812 Rocket 3.9 20:17:27 10° NNW 20:21:46 66° W 20:26:03 10° S
COSMOS 2428 3.9 20:17:47 10° SSE 20:22:09 23° ESE 20:26:32 10° NE
Cosmos 1844 3.8 20:17:35 10° NNW 20:23:24 75° ENE 20:29:07 10° SE
Cosmos 2322 4.2 20:20:33 10° S 20:25:50 40° ESE 20:31:08 10° NE
Cosmos 1602 Rocket 4.2 20:25:38 10° SSW 20:29:59 62° WNW 20:34:26 10° N
Cosmos 2263 Rocket 4.4 20:27:17 10° NW 20:31:16 20° W 20:35:15 10° SSW
Nadezhda 1 Rocket 4.3 20:25:56 10° NNW 20:32:20 75° W 20:38:41 10° S
Cosmos 1709 Rocket 4.2 20:26:40 10° SSE 20:32:47 57° E 20:38:59 10° NNE
MetOp-B 4.4 20:29:29 10° S 20:34:49 71° WSW 20:40:12 10° NNW
Atlas Centaur 2 4.1 20:32:10 10° SSW 20:35:11 14° S 20:38:28 10° SSE
Cosmos 2237 Rocket 4.1 20:34:07 10° ESE 20:36:12 12° E 20:38:16 10° ENE
Terra 2.7 20:31:55 10° SE 20:36:15 36° ENE 20:40:36 10° N
CARTOSAT-1 3.9 20:33:08 10° SE 20:37:18 51° ENE 20:41:30 10° N
Cosmos 2219 Rocket 2.9 20:33:07 10° SSE 20:38:03 33° ESE 20:43:02 10° NE
Cosmos 2360 Rocket 2.2 20:34:09 10° SSW 20:39:48 86° ESE 20:45:31 10° NNE
IGS 5A 3.6 20:36:19 10° S 20:40:28 80° WSW 20:44:40 10° NNW
Cosmos 2333 Rocket 2.6 20:42:28 10° S 20:47:46 43° ESE 20:53:09 10° NE
ATLAS 2AS CENTAUR R/B 3.8 20:43:15 10° NW 20:50:37 43° NNE 20:57:25 10° ESE
Cosmos 1315 Rocket 3.4 20:46:50 10° N 20:50:47 45° ENE 20:54:13 13° SE
Resurs 01 Rocket 3.4 20:48:40 10° SSW 20:52:28 28° W 20:56:18 10° NW
Cosmos-2242 3.3 20:49:59 10° NNW 20:54:19 67° W 20:58:38 10° S
Cosmos 1818 3.7 20:49:37 10° SW 20:55:04 86° NW 21:00:34 10° NE
Cosmos 773 Rocket 4.0 20:52:35 10° S 20:57:49 65° ESE 21:03:04 10° NNE
SL-16 R/B 3.9 20:53:44 10° WSW 20:58:59 38° NW 21:04:16 10° NNE
Cosmos 2221 3.5 20:55:13 10° N 20:59:13 34° ENE 21:02:29 14° SE
ERS-1 Rocket 3.0 20:56:51 11° SSE 21:01:45 90° NW 21:06:50 10° NNW
GEOS 3 Rocket 3.7 20:57:49 10° NE 21:03:15 80° SE 21:08:40 10° SW
USA 215 3.4 21:00:16 10° ENE 21:06:41 53° SE 21:13:01 10° SSW
Cosmos 2278 Rocket 2.8 21:02:47 10° NNW 21:08:19 49° NE 21:13:09 13° SE
Cosmos 1892 4.4 21:07:01 14° ESE 21:08:51 19° E 21:11:36 10° NE
ATLAS 5 CENTAUR R/B 1.8 21:07:33 10° SW 21:11:44 73° NW 21:16:31 10° NE
Meteor 1-11 4.2 21:06:49 10° S 21:12:26 84° ESE 21:18:10 10° NNE
Cosmos 1844 Rocket 3.6 21:07:49 10° NW 21:13:01 41° WSW 21:18:11 10° S
Cosmos 1400 Rocket 4.0 21:09:53 10° NNW 21:13:37 38° W 21:17:16 10° SSW
Gblst 52 Del rocket 4.3 21:08:42 10° WNW 21:14:22 80° SSW 21:20:34 11° ESE
SPOT 5 3.0 21:13:56 13° S 21:18:30 75° WSW 21:23:18 10° NNW
Lacrosse 5 rocket 3.5 21:16:41 10° WNW 21:20:19 27° N 21:23:48 10° NE
USA 81 4.1 21:20:04 10° S 21:25:21 85° W 21:30:41 10° N
Cosmos 2058 3.9 21:25:00 19° SE 21:27:14 32° E 21:30:56 10° NNE
BREEZE M DEB (TANK) 3.2 21:25:34 10° W 21:27:23 20° SSW 21:27:39 19° SSW
Cosmos 2181 Rocket 4.2 21:22:10 10° NNW 21:28:30 72° W 21:34:15 12° S
Cosmos 1408 4.2 21:29:06 16° ESE 21:30:19 19° E 21:32:56 10° NE
Cosmos 2074 Rocket 4.1 21:29:15 14° S 21:34:33 66° E 21:40:42 10° NNE
TSX-5 3.8 21:31:40 10° NNW 21:35:04 63° ENE 21:37:36 21° SE
Cosmos 1076 Rocket 4.2 21:36:08 21° SE 21:38:25 37° E 21:42:23 10° NNE
Cosmos 1680 Rocket 4.3 21:35:41 19° SSE 21:38:45 35° ESE 21:43:32 10° NE
USA 267 3.3 21:34:05 12° ESE 21:40:11 89° SW 21:46:48 10° WNW
Cosmos 2084 3.9 21:41:13 10° NW 21:45:34 52° SW 21:48:05 23° SSE
Cosmos 1842 Rocket 3.7 21:41:46 10° NNW 21:46:08 72° W 21:49:02 20° S
JB-3 4.2 21:43:46 10° NNE 21:47:37 71° E 21:49:57 22° S
Cosmos 2151 4.5 21:47:18 18° ESE 21:48:59 23° E 21:52:21 10° NE
MTI 3.5 21:48:30 10° NNE 21:51:36 88° ESE 21:53:11 26° SSW
Cosmos 923 Rocket 4.1 21:52:20 18° S 21:56:09 61° ESE 22:01:23 10° NNE
ATLAS CENTAUR R/B 2.1 21:53:34 10° NW 21:56:55 33° WSW 21:58:26 23° SSW
Cosmos 1825 3.3 21:58:09 23° ESE 21:59:21 28° E 22:02:39 10° NNE
Cosmos 2369 Rocket 4.4 21:56:14 10° N 22:00:11 19° NE 22:04:08 10° E
ALOS 2 3.9 21:58:03 17° ESE 22:00:40 29° ENE 22:04:29 10° N
Cosmos 1980 3.8 21:56:55 18° S 22:00:58 56° ESE 22:06:29 10° NE
Cosmos 967 Rocket 4.5 21:56:44 10° SSW 22:03:09 71° ESE 22:09:36 10° NE
COSMOS 2428 3.1 22:00:17 10° SW 22:05:55 66° WNW 22:11:36 10° NNE
Cosmos 1869 3.9 22:03:12 10° NNW 22:07:03 49° W 22:09:22 22° SSW
GP-B 4.5 22:05:42 10° NNE 22:09:29 26° E 22:11:23 20° ESE
NOSS 0 Rocket 3.9 22:07:31 12° SSW 22:13:18 79° ESE 22:19:30 10° NNE
Cosmos 1624 Rocket 4.2 22:08:37 10° NNW 22:13:51 65° ENE 22:16:57 24° SE
Terra 3.1 22:10:33 14° SSW 22:14:01 32° W 22:18:18 10° NNW
NOSS 3-4 (A) 3.8 22:07:15 10° NW 22:14:12 88° SW 22:19:46 20° SE
NOSS 3-4 (C) 3.8 22:07:22 10° NW 22:14:18 89° SW 22:19:55 20° SE
Cosmos 2237 Rocket 2.2 22:14:58 18° SSW 22:19:12 71° ESE 22:24:55 10° NNE
Genesis I 3.5 22:18:36 34° S 22:19:48 46° ESE 22:23:33 10° NE
Cosmos 2344 3.7 22:16:02 16° S 22:21:49 53° ESE 22:29:32 10° NE
Cosmos 2219 Rocket 3.2 22:16:28 10° SW 22:21:51 47° NW 22:27:17 10° NNE
Atlas Centaur 2 4.5 22:20:28 10° SSW 22:21:21 11° SSW 22:21:21 11° SSW
Elektron 1 4.3 22:21:21 25° SSW 22:23:10 67° SE 22:28:38 10° NE
NOSS 3-3 (A) 4.4 22:18:44 10° SW 22:24:40 65° NW 22:31:27 10° NE
NOSS 3-3 (C) 4.4 22:18:49 10° SW 22:24:46 66° NW 22:31:35 10° NE
DELTA 2 R/B (1) 4.3 22:24:51 10° SW 22:29:33 28° S 22:30:02 28° SSE
Thor Agena Rocket 3.4 22:25:09 10° NNE 22:30:18 81° ESE 22:33:18 25° S
Cosmos 2333 Rocket 3.5 22:26:46 10° WSW 22:32:06 40° NW 22:37:30 10° NNE
Cosmos 2221 4.1 22:32:58 10° NNW 22:36:41 27° W 22:39:20 15° SW
Iridium 2 4.0 22:37:10 10° NNW 22:40:57 59° W 22:42:26 33° SSW
BREEZE-M DEB (TANK) 1.3 22:37:21 10° WNW 22:41:08 64° SSW 22:41:22 60° SSE
Cosmos 1371 Rocket 4.1 22:36:21 10° NNW 22:41:36 70° WSW 22:44:15 30° S
ATLAS 2AS CENTAUR R/B 2.9 22:34:34 10° NW 22:42:08 70° SW 22:46:25 25° SSE
EO 1 Del DPAF 3.2 22:39:38 10° NNE 22:43:25 78° WNW 22:44:59 33° SSW
Cosmos 1892 3.9 22:41:59 18° SW 22:44:18 36° WNW 22:47:51 10° N
MOS 1-B Rocket 4.4 22:37:19 10° NNE 22:45:13 88° ESE 22:49:57 22° SSW
Cosmos 1766 Rocket 3.8 22:44:25 34° SSE 22:46:03 55° E 22:50:21 10° NNE
Cosmos 1328 Rocket 3.8 22:44:24 10° N 22:48:40 57° ENE 22:50:25 32° SE
Aureole 2 Rocket 1.8 22:45:52 10° NNW 22:48:43 83° ENE 22:48:59 69° SE
Okean 3 Rocket 3.6 22:47:02 34° S 22:48:51 68° E 22:53:16 10° NNE
USA 215 3.6 22:43:19 10° ENE 22:49:50 68° NNW 22:56:19 10° WSW
Cosmos 1606 2.7 22:47:09 10° N 22:51:02 75° E 22:52:19 40° SSE
Cosmos 2278 Rocket 3.3 22:47:13 10° NW 22:52:12 32° WSW 22:54:59 21° SSW
Cosmos 2112 Rocket 4.2 22:48:24 19° SSW 22:52:13 74° WNW 22:57:37 10° NNE
Cosmos 2297 3.7 22:48:12 10° NNW 22:53:59 86° ENE 22:57:11 28° SSE
Cosmos 2218 Rocket 4.2 22:50:54 27° SSE 22:54:23 59° E 23:00:34 10° NNE
Cosmos 158 Rocket 4.2 22:52:56 18° SW 22:56:26 62° WNW 23:01:20 10° NNE
ATLAS 5 CENTAUR R/B 4.4 22:53:43 10° WNW 22:57:15 22° NNW 23:01:11 10° NNE
Cosmos 1420 Rocket 4.0 22:52:32 10° NNW 22:57:50 80° ENE 23:00:36 29° SSE
Cosmos 2366 rocket 4.2 22:56:35 27° SSE 23:00:03 62° E 23:06:19 10° NNE
Lacrosse 5 rocket 2.8 22:56:30 10° NW 23:00:18 36° NNE 23:03:53 10° E
Cosmos 1943 Rocket 2.8 22:55:01 10° NNW 23:00:36 53° NE 23:04:40 18° SE
Cosmos 1633 3.9 23:01:11 24° ESE 23:01:53 26° E 23:04:56 10° NNE
SL-16 R/B 2.3 23:00:46 30° S 23:03:33 61° ESE 23:09:10 10° NE
Cosmos 1408 4.0 23:03:24 20° WSW 23:05:08 32° WNW 23:08:23 10° N
Cosmos 2056 Rocket 4.0 23:00:14 10° NNW 23:05:30 53° WSW 23:07:58 30° SSW
Cosmos 1959 Rocket 4.5 23:06:20 29° S 23:09:39 74° E 23:15:51 10° NNE
Cosmos 2341 Rocket 4.2 23:11:46 23° SSW 23:15:43 67° WNW 23:21:56 10° N
Cosmos 332 Rocket 3.8 23:14:24 10° NNW 23:19:13 79° ENE 23:21:28 32° SSE
USA 267 4.1 23:21:24 26° SSW 23:23:43 32° SW 23:29:30 10° WNW
Meteor 2-3 Rocket 3.7 23:21:02 31° S 23:23:48 74° E 23:29:31 10° NNE
IRIDIUM 104 4.4 23:23:26 31° SSW 23:25:59 73° W 23:31:14 10° N
Cosmos 2151 4.0 23:23:52 23° SW 23:26:04 39° WNW 23:30:06 10° N
Helios 1A 2.9 23:24:53 40° SSE 23:26:20 86° WSW 23:30:33 10° NNW
Cosmos 405 3.3 23:24:41 10° N 23:28:12 57° ENE 23:29:08 41° SE
Meteor 1-26 Rocket 4.3 23:26:14 10° NNW 23:32:17 80° W 23:35:20 30° S
Cosmos 1452 Rocket 3.5 23:27:20 10° NNW 23:32:38 80° WSW 23:35:06 32° SSE
CZ-4C R/B 3.4 23:26:44 10° NW 23:33:36 62° NE 23:41:38 10° ESE
COSMOS 2455 2.8 23:28:31 10° NW 23:34:36 88° WSW 23:38:24 24° SSE
SL-8 Rocket 4.2 23:30:59 25° SSW 23:34:41 64° WNW 23:40:49 10° N
Cosmos 1825 4.0 23:32:56 17° WSW 23:34:52 24° WNW 23:38:02 10° NNW
PSLV R/B 4.3 23:31:14 10° NNE 23:35:13 39° E 23:36:34 30° SE
Cosmos 1340 2.7 23:34:23 43° SSW 23:35:28 71° WNW 23:39:15 10° N
ALOS 2 3.6 23:35:27 27° SW 23:36:56 34° W 23:40:58 10° NNW
Cosmos 1933 3.9 23:33:12 10° NNW 23:37:03 44° W 23:38:13 34° SW
Cosmos 1408 Rocket 3.6 23:35:56 37° SSW 23:37:38 75° WNW 23:42:03 10° N
Cosmos 1151 Rocket 3.7 23:34:28 10° NNW 23:38:35 43° W 23:40:03 31° SW
SL-16 R/B 4.3 23:33:46 10° ESE 23:38:46 26° NE 23:43:49 10° N
Cosmos 1727 Rocket 4.0 23:38:28 10° NNW 23:44:42 76° W 23:48:04 29° S
APEX 3.1 23:42:08 10° NW 23:44:22 42° W 23:44:22 42° W
Cosmos 2369 Rocket 2.3 23:39:33 10° NNW 23:45:11 76° ENE 23:48:49 23° SE
Resurs 1-4 Rocket 4.3 23:42:35 10° NE 23:45:20 14° E 23:48:07 10° ESE
Cosmos 44 3.3 23:43:38 24° SW 23:46:08 66° NW 23:50:36 10° NE
Cosmos 1500 Rocket 3.6 23:44:49 38° SSE 23:46:25 69° E 23:50:48 10° NNE
GP-B 4.2 23:42:48 10° NNW 23:46:51 36° W 23:48:50 24° SW
SL-4 R/B 3.2 23:48:59 14° WNW 23:48:59 14° WNW 23:49:36 10° NW
Cosmos 371 Rocket 3.9 23:44:12 10° NW 23:48:48 43° WSW 23:50:25 32° SSW
SeaSat 1 4.3 23:46:18 10° ENE 23:49:36 18° ESE 23:51:20 15° SE
Helios 1B rocket 2.9 23:50:01 10° NNE 23:54:03 50° E 23:55:23 35° SSE
CREW DRAGON DEMO-1 DEB 3.0 23:54:49 26° W 23:56:23 70° NNW 23:59:27 10° ENE
